Retour au catalogue

SIRIO

ActifCommunicationsGEO
NORAD 10294·PAYLOAD·🇮🇹 Italy

Lancé Aug 25, 1977 depuis Cape Canaveral Space Force Station

Loading…

TLE

FraisSource: Space-Track

Époque: Sep 14, 2026, 14:09 UTC

1 10294U 77080A   26257.58992108 -.00000099  00000-0  00000-0 0  9991
2 10294   7.0281 298.5254 0005966 170.0219 172.0770  1.00270372118812

Suivez SIRIO en temps réel avec AllMySat

Download on the App Store